This is the latest recevied weather packets stored in our database for station/object N0FDH. If no packets are shown the sender has not sent any weather packets the latest 10 day(s).
| Time | Temp. | Humidity | Pressure | Rain* | Wind** | Luminosity | Snow |
|---|---|---|---|---|---|---|---|
| 1777597375 | 5.56° C | 50% | 1016 hPa | 0 mm | - | 6 W/m² | - |
| 1777597071 | 5.56° C | 50% | 1015.9 hPa | 0 mm | - | 8 W/m² | - |
| 1777596768 | 6.11° C | 49% | 1015.8 hPa | 0 mm | - | 10 W/m² | - |
| 1777596463 | 6.11° C | 49% | 1015.8 hPa | 0 mm | - | 12 W/m² | - |
| 1777596161 | 6.11° C | 48% | 1015.8 hPa | 0 mm | - | 13 W/m² | - |
| 1777595858 | 6.67° C | 47% | 1015.8 hPa | 0 mm | - | 15 W/m² | - |
| 1777595553 | 6.67° C | 47% | 1015.7 hPa | 0 mm | - | 16 W/m² | - |
| 1777595249 | 6.67° C | 46% | 1015.6 hPa | 0 mm | - | 23 W/m² | - |
| 1777594945 | 6.67° C | 46% | 1015.6 hPa | 0 mm | - | 25 W/m² | - |
| 1777594641 | 7.22° C | 46% | 1015.6 hPa | 0 mm | - | 29 W/m² | - |
| 1777594339 | 7.22° C | 46% | 1015.5 hPa | 0 mm | - | 37 W/m² | - |
| 1777594034 | 7.22° C | 45% | 1015.6 hPa | 0 mm | - | 39 W/m² | - |
| 1777593730 | 7.22° C | 46% | 1015.6 hPa | 0 mm | - | 43 W/m² | - |
| 1777593426 | 7.22° C | 45% | 1015.5 hPa | 0 mm | - | 49 W/m² | - |
| 1777593125 | 7.22° C | 45% | 1015.6 hPa | 0 mm | - | 45 W/m² | - |
| 1777592824 | 7.78° C | 49% | 1015.7 hPa | 0 mm | - | 41 W/m² | - |
| 1777592521 | 7.22° C | 47% | 1015.7 hPa | 0 mm | - | 52 W/m² | - |
| 1777592216 | 7.22° C | 45% | 1015.6 hPa | 0 mm | - | 43 W/m² | - |
| 1777591913 | 7.22° C | 44% | 1015.5 hPa | 0 mm | - | 48 W/m² | - |
| 1777591609 | 7.78° C | 45% | 1015.5 hPa | 0 mm | - | 53 W/m² | - |
| 1777591305 | 7.78° C | 44% | 1015.6 hPa | 0 mm | - | 61 W/m² | - |
| 1777591002 | 7.78° C | 44% | 1015.7 hPa | 0 mm | - | 69 W/m² | - |
| 1777590702 | 7.22° C | 47% | 1015.7 hPa | 0 mm | - | 70 W/m² | - |
| 1777590399 | 7.78° C | 46% | 1015.7 hPa | 0 mm | - | 74 W/m² | - |
| 1777590096 | 7.22° C | 44% | 1015.8 hPa | 0 mm | - | 76 W/m² | - |
* Rain latest hour (hover to see other rain measurements)
** Current wind speed in m/s (hover to see current wind gust speed)